Vertical_Velocity
-6 -3 0 0 -2 -2 2 -1 -2 3 1 2 1 -3 -1 1 -0 -5 -1 -6 0 -5 -2 -5 1 -4 0 -1 -3 1 -4 -5 1 -4 -5 -1 2 -2 1 3 2 -11 6 -1 2 -0 -1
-2 -2 2 -1 -1 -1 1 -2 1 5 -4 -0 3 -1 2 1 -4 1 -1 -1 -3 -2 5 -1 -5 -1 -4 0 -4 -5 -3 -6 -2 -2 -4 -2 -0 -0 -1 1 -6 7 2 2 0 1 -2
0 -0 -2 -1 -5 -4 1 -2 -0 2 4 -4 1 3 2 -3 5 -6 -5 0 -1 -3 -1 -0 -8 -6 -1 -4 -3 -3 -1 -5 -4 -0 -1 -2 -1 -2 0 2 2 9 -1 1 -8 6 -6
4 1 1 0 -2 3 -2 -1 2 -1 -2 4 -4 1 3 2 4 -3 -4 3 -0 -1 -2 3 -4 -2 2 -2 -3 -5 -3 -4 -1 -2 -1 -2 -1 -3 4 -1 -4 2 -2 -9 6 2 6
-2 -1 -1 -4 -3 -2 -2 4 -3 2 2 4 2 0 -4 -1 2 -4 -1 1 2 1 -2 3 -1 1 -4 -2 -3 -5 -2 -1 -0 -3 -0 -1 -1 -3 -5 13 6 2 3 1 1 -4 6
-2 -4 3 -3 5 3 -1 1 -4 3 -3 2 5 -1 2 2 3 -2 -2 3 4 3 7 2 -0 -4 -1 -5 -0 -6 -3 -0 -2 -2 -2 -3 -5 -8 -2 -2 15 4 1 0 -0 -14 -4
2 -1 1 2 -1 -0 5 3 3 6 15 5 -5 4 2 -3 -1 1 -1 5 2 -1 10 -3 -0 -6 -3 -0 -0 -1 -7 -2 -1 -2 -4 -2 -2 -3 -1 -2 16 -1 2 13 7 -0 -4
-6 1 -1 -2 1 4 4 3 6 5 2 28 11 -8 4 2 -2 7 2 6 -0 9 10 -2 0 -2 -3 -3 -2 -2 -5 -4 -1 -0 -1 -2 -2 2 8 19 11 1 2 -0 4 -3 -2
-4 -8 -7 -2 2 4 1 2 2 3 1 9 3 8 -5 4 -3 9 5 0 2 18 8 -3 -1 -2 -2 -3 -4 -1 -8 2 4 -1 -0 4 -1 2 5 34 4 -1 -2 3 18 3 2
-6 -4 -0 3 3 -4 -0 0 2 -4 -2 -10 2 24 -9 -4 5 5 5 -1 5 19 -9 -7 -2 -1 1 -5 -7 -6 -7 6 -3 -2 -2 1 -3 7 -1 8 12 0 -1 7 4 -0 3
3 1 -0 -2 -5 -0 2 -3 1 -3 -9 -10 -14 -1 3 -12 4 7 0 -1 10 4 3 -5 -2 1 -2 -8 -2 -7 -3 -1 2 -3 -3 -3 -4 -1 -4 2 5 -3 -2 4 12 7 -3
5 4 2 0 2 2 3 6 2 1 0 -1 -5 3 -1 -18 6 4 6 7 18 -2 -2 3 -1 -1 -2 -4 -1 -3 -3 -1 -6 -4 -0 -3 -3 -4 1 2 10 3 -4 6 1 -6 7
1 -2 -1 -4 -1 -1 1 3 -4 -5 0 7 -2 5 -5 -1 2 9 4 11 7 6 2 2 -4 -1 -6 -4 -1 -4 -2 -6 -1 0 -1 3 -5 3 24 -3 -3 -3 -0 -7 -4 2 6
-2 1 -2 -4 -0 -1 -3 -0 1 -0 -7 0 2 -1 -1 10 10 5 7 5 24 4 5 -0 -3 -1 -7 -2 -0 -3 -2 -3 -2 -1 2 -1 1 9 4 2 -5 -10 -2 -1 -0 -1 4
-2 1 -5 0 -1 -3 1 4 9 -6 5 3 1 -7 7 6 2 -0 7 27 4 2 -0 1 -1 -4 -5 -1 1 -1 -6 -0 -4 -3 3 -1 13 -8 5 7 3 3 4 3 1 2 -4
3 -3 0 -1 -5 0 6 10 15 21 15 -14 11 5 1 -4 7 11 6 8 -1 1 -5 4 -1 -3 -4 -3 -1 3 -3 3 -1 -3 5 -2 9 -1 2 3 3 -4 -3 -0 6 -3 -3
2 -2 1 -5 -4 1 6 7 17 12 2 8 8 1 0 7 18 6 20 6 -3 -3 -2 1 -7 -3 -0 -3 2 0 5 6 4 -0 -3 -2 2 1 -1 -1 -7 -11 -9 -4 5 6 4
1 -0 1 -6 -1 -0 1 -2 -2 11 12 3 1 8 4 5 14 16 8 2 2 -3 -1 3 -7 -2 1 -0 3 -1 -5 2 0 1 1 2 -4 -2 -6 -2 3 4 3 -2 -3 -1 -10
0 -0 -1 -4 0 0 7 3 -5 3 -1 -1 11 5 7 8 28 8 4 1 -1 1 -1 1 -4 -2 2 0 1 3 2 1 -3 -1 1 1 3 2 -1 -3 -1 -4 2 0 2 -3 0
1 -3 -2 -3 -2 4 -1 4 -1 -2 10 4 4 1 6 7 9 -1 3 3 2 -6 -3 -1 -4 -1 2 -0 -3 -6 -1 -4 -1 3 2 -0 -2 -5 -4 -1 -5 -5 -3 -2 -4 -5 -3
-1 -5 -1 -5 -2 0 8 3 7 4 0 10 2 8 12 11 -0 3 6 -6 -2 6 -1 0 -3 -4 2 -1 1 -0 -1 -3 1 1 -3 -2 -2 -1 -0 2 0 -3 -4 -1 -2 -5 -7
-2 -3 -2 -8 -1 -2 -4 6 -11 -8 -5 11 -4 -2 3 8 1 3 0 -2 -0 0 2 -4 -2 -1 1 -2 1 -1 2 1 3 3 0 1 -3 -3 -2 1 -1 -3 -2 -2 -4 -5 2
-1 -2 -2 -10 -6 -9 -8 2 -3 -4 2 -3 2 -2 -1 4 0 2 -2 -1 -2 -2 -1 -2 -3 -2 -4 1 -0 0 -0 0 2 2 5 3 5 1 1 -2 -0 -0 -2 1 1 6 4
-1 -7 -12 -7 -8 -1 0 -0 0 0 -2 2 0 -3 6 -0 3 -1 -3 -4 -1 -1 -2 -2 -2 -1 -7 -3 -4 -3 -3 -3 -2 -0 -2 -2 -1 -2 -0 2 -0 -1 -3 -2 -1 -2 -3
-3 -5 -9 -14 -6 -5 -2 2 -1 -5 0 3 1 -2 -1 2 2 -1 -1 -1 1 -1 -1 -4 -3 -5 -3 -3 -1 -2 -4 -6 -3 -2 -2 -3 -1 -1 -3 -2 -2 1 2 2 -2 -3 -1
-8 -11 -7 -7 -3 -2 -0 -6 -4 -2 -2 -1 2 -2 -1 1 1 1 -1 -3 -4 -1 0 -1 -2 -4 -2 -3 -2 -4 -1 -2 -1 -1 1 0 2 -0 1 -0 0 2 -0 -1 -3 -4 -1
-8 -6 -2 -9 -4 -6 -1 -1 1 2 2 0 1 0 -2 -2 1 1 -2 -1 1 -0 -1 -1 -4 -2 2 0 -2 -2 -2 -2 -3 -3 -3 -3 -0 -2 -3 -3 -1 -3 -3 -3 -2 -0 -4
-9 -6 -8 -7 -6 3 -3 1 3 0 1 1 -0 -2 -3 -3 3 1 1 -1 -2 -1 -0 1 -2 0 1 -1 -2 -2 -2 -0 -1 -0 -3 -2 -0 -4 -2 -2 -1 -2 -1 -1 0 -2 -2
-6 -6 -8 -8 -6 -2 1 1 3 -1 -1 1 2 -1 -2 -2 -1 -1 -0 -0 -1 -2 -3 1 0 -1 -2 -3 -2 -2 -3 -1 -0 -1 -1 -1 -2 -1 -3 -2 -1 -1 0 -1 -0 -0 2
Height
5762 5757 5751 5746 5742 5736 5732 5728 5725 5722 5718 5715 5713 5710 5707 5706 5703 5699 5695 5693 5687 5681 5676 5669 5666 5660 5655 5650 5643 5638 5634 5629 5621 5616 5610 5605 5602 5601 5605 5612 5613 5618 5634 5641 5649 5655 5664
5750 5745 5740 5734 5728 5722 5718 5715 5711 5709 5705 5703 5700 5698 5697 5695 5693 5690 5687 5683 5679 5673 5668 5661 5655 5650 5644 5639 5631 5625 5619 5613 5608 5600 5594 5590 5589 5587 5590 5600 5603 5614 5620 5630 5638 5649 5659
5737 5731 5725 5720 5713 5708 5705 5700 5698 5695 5693 5690 5688 5686 5686 5684 5683 5681 5678 5674 5670 5665 5660 5652 5646 5641 5634 5626 5619 5612 5605 5599 5593 5588 5584 5580 5578 5577 5584 5592 5596 5602 5605 5616 5628 5644 5654
5724 5717 5710 5704 5698 5693 5688 5684 5681 5679 5677 5676 5675 5673 5673 5673 5672 5671 5669 5665 5661 5657 5652 5644 5638 5631 5623 5615 5607 5601 5594 5587 5581 5578 5577 5574 5573 5576 5582 5589 5593 5595 5590 5599 5620 5638 5649
5709 5702 5695 5687 5680 5675 5671 5669 5664 5661 5660 5659 5658 5659 5659 5660 5660 5660 5658 5656 5653 5648 5644 5635 5629 5623 5613 5605 5598 5589 5582 5576 5573 5572 5571 5570 5572 5577 5582 5588 5593 5594 5596 5602 5615 5633 5644
5692 5684 5676 5668 5662 5656 5653 5649 5648 5645 5642 5640 5641 5642 5645 5647 5648 5650 5648 5647 5645 5641 5636 5629 5622 5618 5607 5599 5589 5580 5572 5565 5564 5565 5565 5567 5573 5579 5583 5589 5592 5597 5599 5606 5617 5629 5641
5678 5666 5658 5651 5643 5637 5632 5627 5624 5623 5624 5620 5621 5625 5629 5633 5638 5638 5638 5638 5638 5634 5627 5624 5617 5608 5598 5592 5585 5575 5565 5558 5556 5558 5561 5568 5575 5583 5586 5587 5593 5598 5603 5611 5621 5631 5639
5661 5651 5640 5630 5620 5611 5605 5600 5597 5596 5598 5602 5599 5604 5614 5619 5625 5628 5628 5628 5628 5626 5619 5616 5608 5599 5593 5588 5582 5574 5564 5556 5555 5557 5564 5572 5579 5581 5585 5590 5593 5599 5606 5614 5624 5631 5639
5642 5632 5619 5606 5595 5584 5576 5570 5566 5565 5568 5576 5576 5584 5593 5603 5613 5617 5618 5620 5620 5616 5611 5610 5600 5595 5592 5588 5579 5573 5565 5561 5560 5564 5571 5576 5580 5583 5589 5591 5595 5602 5610 5620 5627 5632 5640
5622 5608 5594 5581 5570 5560 5551 5544 5541 5540 5542 5546 5551 5561 5572 5583 5601 5605 5608 5613 5613 5603 5608 5606 5597 5595 5593 5586 5581 5576 5571 5570 5571 5575 5578 5581 5584 5588 5593 5595 5600 5606 5613 5620 5625 5632 5641
5600 5584 5570 5559 5549 5538 5531 5526 5524 5523 5523 5524 5527 5535 5551 5567 5585 5593 5603 5604 5605 5600 5603 5599 5595 5595 5594 5591 5586 5583 5579 5579 5579 5581 5584 5587 5589 5594 5599 5601 5605 5609 5613 5621 5626 5634 5640
5582 5568 5555 5544 5532 5522 5514 5509 5507 5506 5507 5506 5506 5509 5529 5551 5571 5585 5594 5597 5598 5599 5594 5594 5594 5595 5593 5592 5589 5587 5585 5586 5587 5587 5588 5592 5596 5601 5602 5604 5608 5611 5618 5624 5631 5636 5642
5563 5549 5536 5525 5514 5506 5500 5495 5491 5492 5491 5492 5491 5495 5510 5542 5562 5578 5585 5590 5593 5591 5591 5593 5594 5594 5594 5591 5591 5590 5590 5590 5590 5591 5591 5596 5602 5603 5603 5608 5612 5617 5625 5630 5636 5637 5642
5548 5533 5522 5510 5501 5493 5489 5483 5482 5484 5485 5484 5480 5481 5513 5537 5556 5571 5580 5585 5584 5583 5586 5590 5593 5594 5593 5592 5592 5591 5591 5592 5593 5595 5597 5602 5606 5608 5610 5614 5619 5624 5627 5632 5634 5638 5644
5534 5521 5510 5501 5493 5485 5482 5483 5482 5482 5476 5473 5479 5493 5514 5538 5556 5568 5576 5578 5578 5580 5586 5589 5592 5594 5594 5594 5593 5592 5593 5594 5597 5599 5605 5607 5609 5613 5616 5618 5623 5627 5632 5635 5637 5640 5646
5523 5512 5503 5494 5487 5483 5479 5481 5480 5479 5469 5477 5489 5507 5527 5543 5556 5566 5572 5572 5574 5579 5584 5589 5593 5595 5594 5595 5596 5595 5597 5599 5602 5605 5608 5612 5616 5617 5620 5623 5628 5631 5636 5638 5640 5643 5650
5515 5505 5497 5489 5484 5483 5482 5483 5479 5483 5485 5497 5508 5522 5534 5546 5556 5564 5566 5569 5573 5578 5584 5591 5595 5596 5595 5597 5597 5599 5601 5604 5608 5611 5613 5616 5621 5623 5626 5628 5631 5635 5639 5642 5645 5649 5651
5508 5498 5492 5487 5484 5485 5486 5486 5486 5490 5499 5508 5518 5529 5540 5551 5558 5563 5564 5567 5573 5578 5584 5591 5597 5597 5597 5598 5600 5603 5606 5609 5612 5615 5616 5618 5620 5626 5630 5633 5635 5638 5641 5645 5649 5653 5655
5502 5494 5487 5485 5486 5488 5489 5493 5494 5496 5504 5515 5525 5535 5544 5552 5558 5561 5564 5569 5572 5578 5585 5592 5599 5600 5600 5600 5604 5608 5610 5614 5617 5618 5620 5622 5625 5631 5633 5637 5639 5642 5644 5646 5650 5654 5658
5498 5490 5486 5487 5490 5492 5495 5500 5506 5509 5515 5522 5531 5539 5548 5554 5559 5564 5566 5569 5573 5579 5585 5594 5600 5603 5604 5607 5611 5613 5615 5618 5621 5623 5625 5628 5630 5633 5636 5637 5640 5643 5645 5648 5652 5655 5658
5494 5487 5486 5491 5494 5497 5501 5508 5511 5515 5520 5528 5534 5543 5552 5557 5561 5565 5567 5572 5577 5583 5589 5596 5601 5605 5608 5611 5615 5617 5620 5623 5625 5627 5630 5632 5634 5636 5637 5639 5642 5645 5647 5649 5652 5654 5658
5491 5487 5489 5496 5498 5502 5505 5512 5516 5519 5525 5532 5538 5545 5553 5558 5562 5567 5572 5575 5580 5586 5592 5598 5603 5607 5611 5615 5619 5622 5624 5626 5628 5630 5632 5633 5635 5637 5639 5640 5640 5642 5644 5647 5650 5653 5654
5491 5491 5495 5502 5504 5508 5512 5518 5525 5530 5534 5540 5546 5550 5555 5561 5565 5570 5575 5579 5583 5588 5593 5599 5604 5608 5612 5617 5620 5624 5626 5628 5629 5631 5632 5634 5635 5638 5640 5641 5642 5643 5644 5645 5646 5646 5648
5497 5501 5507 5511 5513 5517 5522 5529 5534 5538 5544 5548 5552 5555 5560 5565 5570 5574 5577 5581 5587 5592 5596 5602 5606 5611 5615 5618 5621 5624 5627 5629 5632 5633 5635 5635 5637 5639 5641 5642 5643 5644 5645 5646 5647 5648 5649
5509 5515 5519 5522 5526 5530 5533 5539 5543 5546 5551 5556 5559 5562 5566 5571 5575 5578 5582 5586 5591 5596 5600 5603 5607 5612 5617 5620 5622 5624 5627 5631 5632 5634 5636 5637 5638 5640 5642 5642 5643 5643 5644 5645 5646 5646 5645
5522 5530 5533 5537 5542 5543 5547 5550 5552 5556 5560 5563 5567 5570 5573 5577 5581 5584 5587 5591 5596 5601 5604 5608 5611 5614 5618 5622 5624 5626 5629 5630 5632 5634 5635 5636 5637 5639 5639 5640 5641 5641 5641 5642 5643 5642 5641
5535 5540 5547 5549 5551 5553 5556 5559 5564 5567 5570 5571 5574 5577 5580 5583 5586 5590 5595 5598 5601 5605 5609 5612 5615 5618 5620 5622 5625 5627 5629 5631 5632 5633 5634 5635 5636 5637 5637 5638 5639 5639 5639 5639 5639 5641 5637
5547 5551 5557 5561 5561 5563 5566 5570 5572 5574 5578 5579 5583 5584 5587 5590 5593 5596 5600 5603 5607 5611 5613 5617 5619 5621 5622 5624 5627 5628 5629 5632 5633 5633 5635 5635 5635 5636 5636 5636 5637 5637 5637 5637 5636 5634 5634
5557 5562 5567 5570 5570 5573 5575 5578 5580 5582 5584 5587 5590 5592 5594 5598 5601 5604 5606 5610 5613 5616 5619 5622 5624 5626 5628 5629 5630 5631 5632 5633 5634 5635 5635 5636 5637 5637 5637 5636 5635 5635 5634 5633 5631 5630 5628